Station PILM4 - Passage Island, MI Image indicating link to RSS feed of recent meteorological observations for station PILM4


Conditions at PILM4 as of
(11:00 am EDT)
1500 GMT on 06/01/2023:
     

Click on the graph icon in the table below to see a time series plot of the last five days of that observation.

5-day plot - Wind Direction Wind Direction (WDIR): N ( 360 deg true )
5-day plot - Wind Speed Wind Speed (WSPD): 14 kts
5-day plot - Wind Gust Wind Gust (GST): 16 kts
5-day plot - Atmospheric Pressure Atmospheric Pressure (PRES):30.12 in
5-day plot - Pressure Tendency Pressure Tendency (PTDY):+0.02 in ( Rising )
5-day plot - Air Temperature Air Temperature (ATMP): 43.0 °F
5-day plot - Wind Chill Wind Chill (CHILL): 35.4 °F
5-day plot -  Wind Speed, Wind Gust and Atmospheric Pressure Combined plot of Wind Speed, Gust, and Air Pressure
 
Previous observations
TIME
(EDT)
5-day plot - Wind Direction
WDIR
 
5-day plot - Wind Speed
WSPD
kts
5-day plot - Wind Gust
GST
kts
5-day plot - Wave Height
WVHT
ft
5-day plot - Dominant Wave Period
DPD
sec
5-day plot - Average Wave Period
APD
sec
5-day plot - Mean Wave Direction
MWD
 
5-day plot - Atmospheric Pressure
PRES
in
5-day plot - Pressure Tendency
PTDY
in
5-day plot - Air Temperature
ATMP
°F
5-day plot - Water Temperature
WTMP
°F
5-day plot - Dew Point
DEWP
°F
5-day plot - Salinity
SAL
psu
5-day plot - Visibility
VIS
nmi
5-day plot - Tide (above MLLW)
TIDE
ft
2023-06-01 10:00 am N 5 7----30.13+0.06 45.7-----
2023-06-01 09:00 am- 0 1----30.11+0.05 47.1-----
2023-06-01 08:00 am- 0 2----30.11+0.06 43.2-----
2023-06-01 07:00 am E 7 8----30.07+0.02 45.0-----
2023-06-01 06:00 am NE 9 11----30.06+0.04 45.3-----
2023-06-01 05:00 am NE 5 6----30.05+0.04 45.3-----
2023-06-01 04:00 amNNW 10 10----30.05+0.04 39.4-----
2023-06-01 03:00 amENE 14 14----30.02+0.02 45.5-----
2023-06-01 02:00 amENE 7 7----30.01+0.01 47.7-----
2023-06-01 01:00 am N 5 6----30.01+0.01 50.2-----
2023-06-01 12:00 amENE 10 11----30.00+0.01 48.4-----
2023-05-31 11:00 pm E 11 11----30.00+0.01 49.1-----
2023-05-31 10:00 pmENE 7 8----30.00+0.00 52.0-----
2023-05-31 09:00 pmENE 5 6----29.99+0.00 46.0-----
2023-05-31 08:00 pmENE 9 11----29.98+0.00 45.3-----
2023-05-31 07:00 pmENE 12 13----29.99+0.00 43.5-----
2023-05-31 06:00 pmENE 7 9----29.99-0.02 50.2-----
2023-05-31 05:00 pm E 9 11----29.99-0.03 45.7-----
2023-05-31 04:00 pm E 9 10----30.00-0.02 42.1-----
2023-05-31 03:00 pm E 10 12----30.01+0.00 42.4-----
2023-05-31 02:00 pm E 9 11----30.02+0.01 41.7-----
2023-05-31 01:00 pm E 10 11----30.02+0.03 43.9-----
2023-05-31 12:00 pm E 13 13----30.01+0.02 45.0-----
2023-05-31 11:00 amENE 5 7----30.01+0.04 46.6-----